Location: Newark
(40.0667°N, 18.0500°E)
Time: 14:36:09
(UTC+00:00)

N. Korean satellite - Pass Details

Date: 02 February 2020
Orbit: 456 x 505 km, 97.2° (Epoch: 29 February)

Event Time Altitude Azimuth Distance (km) Brightness Sun altitude
Rises 03:52:57 0° 25° (NNE) 2,573 10.5 -23.8°
Reaches altitude 10° 03:55:18 10° 40° (NE) 1,695 9.8 -23.3°
Maximum altitude 03:58:19 24° 96° (E) 1,067 9.1 -22.8°
Drops below altitude 10° 04:01:20 10° 151° (SSE) 1,701 9.7 -22.2°
Sets 04:03:42 0° 166° (SSE) 2,584 10.5 -21.7°
